GW5072 Weather Reports


time (UTC)temp
C
wind
direction
speed
KPH
gust
KPH
rain 1hr
cm
rain 24hr
cm
rain mn
cm
humidity
%
barometer
mb
20260905220029 30 288 0.0 0.0 0.00 0.03 0.03 75 1012.4
20260905215508 31 260 0.0 1.6 0.00 0.03 0.03 71 1012.4
20260905215013 31 94 0.0 1.6 0.00 0.03 0.03 66 1012.3
20260905214524 32 89 0.0 3.2 0.00 0.03 0.03 65 1012.1
20260905214016 32 98 0.0 3.2 0.00 0.03 0.03 63 1011.9
20260905213518 33 87 0.0 3.2 0.00 0.03 0.03 61 1011.7
20260905213037 33 89 0.0 3.2 0.00 0.03 0.03 60 1011.8
20260905212521 33 89 0.0 3.2 0.00 0.03 0.03 59 1011.9
20260905212011 33 67 0.0 0.0 0.00 0.03 0.03 58 1011.9
20260905211519 33 66 0.0 0.0 0.00 0.03 0.03 60 1011.8
20260905211015 34 66 0.0 0.0 0.00 0.03 0.03 55 1011.9
20260905210512 34 66 0.0 0.0 0.00 0.03 0.03 56 1011.9
20260905210033 35 66 0.0 1.6 0.00 0.03 0.03 56 1011.9
20260905205517 35 63 0.0 1.6 0.00 0.03 0.03 54 1012.0
20260905205013 35 318 0.0 6.4 0.00 0.03 0.03 53 1011.8
20260905204532 35 360 0.0 6.4 0.00 0.03 0.03 54 1011.8
20260905204014 35 338 0.0 3.2 0.00 0.03 0.03 54 1011.8
20260905203515 35 3 0.0 0.0 0.00 0.03 0.03 56 1011.9
20260905203034 36 354 0.0 0.0 0.00 0.03 0.03 53 1012.0
20260905202512 37 355 0.0 1.6 0.00 0.03 0.03 50 1012.1
20260905202016 37 342 0.0 1.6 0.00 0.03 0.03 49 1012.1
20260905201528 37 221 0.0 1.6 0.00 0.03 0.03 48 1012.1
20260905201015 36 327 0.0 1.6 0.00 0.03 0.03 51 1012.2
20260905200519 36 56 0.0 1.6 0.00 0.03 0.03 54 1012.3
20260905200006 36 77 0.0 1.6 0.00 0.03 0.03 53 1012.4
20260905195508 36 84 0.0 1.6 0.00 0.03 0.03 50 1012.4
20260905195006 36 112 0.0 1.6 0.00 0.03 0.03 51 1012.4
20260905194526 36 244 0.0 1.6 0.00 0.03 0.03 53 1012.3
20260905194009 36 103 0.0 4.8 0.00 0.03 0.03 53 1012.4
20260905193505 36 2 0.0 4.8 0.00 0.03 0.03 51 1012.6
20260905193025 36 130 1.6 4.8 0.00 0.03 0.03 49 1012.7
20260905192506 37 281 0.0 4.8 0.00 0.03 0.03 50 1012.8
20260905192004 36 281 0.0 1.6 0.00 0.03 0.03 51 1012.8
20260905191520 37 60 0.0 1.6 0.00 0.03 0.03 48 1013.0
20260905191003 37 297 0.0 1.6 0.00 0.03 0.03 50 1013.1
20260905190511 37 214 0.0 1.6 0.00 0.03 0.03 50 1013.1
20260905190018 37 341 0.0 1.6 0.00 0.03 0.03 53 1013.1
20260905185503 36 233 0.0 1.6 0.00 0.03 0.03 53 1013.2
20260905185011 37 21 0.0 1.6 0.00 0.03 0.03 52 1013.2
20260905184513 37 238 0.0 0.0 0.00 0.03 0.03 54 1013.2
20260905184015 36 212 0.0 0.0 0.00 0.03 0.03 53 1013.3
20260905183510 36 252 0.0 0.0 0.00 0.03 0.03 56 1013.4
20260905183008 36 252 0.0 0.0 0.00 0.03 0.03 56 1013.5
20260905182514 36 224 0.0 1.6 0.00 0.03 0.03 58 1013.5
20260905182006 36 219 0.0 1.6 0.00 0.03 0.03 60 1013.6
20260905181507 36 222 0.0 1.6 0.00 0.03 0.03 58 1013.7
20260905181012 36 285 0.0 1.6 0.00 0.03 0.03 58 1013.9
20260905180507 35 262 0.0 1.6 0.00 0.03 0.03 60 1013.9
20260905180027 36 220 0.0 0.0 0.00 0.05 0.03 59 1014.0
20260905175510 35 282 0.0 0.0 0.00 0.05 0.03 61 1014.1
20260905175005 35 247 0.0 1.6 0.00 0.08 0.03 63 1014.2
20260905174526 34 216 0.0 1.6 0.00 0.08 0.03 65 1014.3
20260905174009 33 197 0.0 4.8 0.00 0.13 0.03 63 1014.3
20260905173503 33 228 0.0 4.8 0.00 0.20 0.03 65 1014.4
20260905173024 33 122 0.0 0.0 0.00 0.30 0.03 63 1014.5
20260905172504 32 101 0.0 0.0 0.00 0.30 0.03 66 1014.6
20260905172016 32 58 0.0 0.0 0.00 0.30 0.03 68 1014.6
20260905171524 32 91 0.0 0.0 0.00 0.30 0.03 68 1014.6
20260905171009 32 210 0.0 0.0 0.00 0.30 0.03 69 1014.7
20260905170513 31 101 0.0 0.0 0.00 0.30 0.03 72 1014.8
20260905170018 31 63 0.0 0.0 0.00 0.30 0.03 73 1014.8
20260905165516 31 56 0.0 0.0 0.00 0.30 0.03 73 1014.9
20260905165013 31 177 0.0 0.0 0.00 0.30 0.03 74 1015.0
20260905164514 30 203 0.0 0.0 0.00 0.30 0.03 76 1015.0
20260905164013 30 185 0.0 0.0 0.00 0.30 0.03 76 1015.0
20260905163510 29 184 0.0 0.0 0.00 0.30 0.03 78 1015.0
20260905163011 29 184 0.0 0.0 0.00 0.30 0.03 78 1015.1
20260905162515 29 185 0.0 0.0 0.00 0.30 0.03 77 1015.0
20260905162010 29 185 0.0 0.0 0.00 0.30 0.03 77 1015.0
20260905161530 29 185 0.0 0.0 0.00 0.30 0.03 79 1015.0
20260905161010 29 185 0.0 0.0 0.00 0.30 0.03 80 1015.0
20260905160507 28 185 0.0 0.0 0.00 0.30 0.03 80 1015.0
20260905160039 28 185 0.0 0.0 0.00 0.30 0.03 83 1014.9
20260905155509 29 185 0.0 0.0 0.00 0.30 0.03 82 1015.0
20260905155004 28 185 0.0 0.0 0.00 0.30 0.03 81 1015.0
20260905154524 28 185 0.0 0.0 0.00 0.30 0.03 82 1015.0
20260905154007 28 185 0.0 0.0 0.00 0.30 0.03 83 1015.0
20260905153516 28 185 0.0 0.0 0.00 0.30 0.03 86 1015.0
20260905153035 28 163 0.0 0.0 0.00 0.30 0.03 87 1015.1
20260905152507 27 159 0.0 0.0 0.00 0.30 0.03 89 1015.0
20260905152014 27 158 0.0 0.0 0.00 0.30 0.03 90 1015.0
20260905151521 27 159 0.0 0.0 0.00 0.30 0.03 90 1015.0
20260905151008 27 159 0.0 0.0 0.00 0.30 0.03 92 1015.1
20260905150513 26 158 0.0 0.0 0.00 0.30 0.03 93 1015.0
20260905150018 26 160 0.0 0.0 0.00 0.30 0.03 94 1015.0
20260905145517 26 160 0.0 0.0 0.00 0.30 0.03 96 1014.9
20260905145012 26 158 0.0 0.0 0.00 0.30 0.03 97 1014.8
20260905144519 26 158 0.0 0.0 0.00 0.30 0.03 97 1014.8
20260905144014 26 158 0.0 0.0 0.00 0.30 0.03 97 1015.0
20260905143510 26 157 0.0 0.0 0.00 0.30 0.03 97 1014.8
20260905143042 26 107 0.0 0.0 0.00 0.30 0.03 98 1014.8
20260905142513 26 107 0.0 0.0 0.00 0.30 0.03 97 1014.7
20260905142012 25 107 0.0 0.0 0.00 0.30 0.03 97 1014.8
20260905141530 25 107 0.0 0.0 0.00 0.30 0.03 97 1014.9
20260905141015 25 107 0.0 0.0 0.00 0.30 0.03 97 1014.9
20260905140511 25 107 0.0 0.0 0.00 0.30 0.03 97 1014.9
20260905140031 25 107 0.0 0.0 0.03 0.30 0.03 97 1014.9
20260905135512 25 107 0.0 0.0 0.03 0.30 0.03 98 1014.8
20260905135017 25 107 0.0 0.0 0.03 0.30 0.03 98 1014.8
20260905134529 25 107 0.0 0.0 0.03 0.30 0.03 97 1014.7
20260905134010 25 107 0.0 0.0 0.03 0.30 0.03 98 1014.7
20260905133517 25 107 0.0 0.0 0.03 0.30 0.03 98 1014.7
20260905133026 24 107 0.0 0.0 0.03 0.30 0.03 98 1014.6
20260905132507 24 107 0.0 0.0 0.03 0.30 0.03 98 1014.7
20260905132017 23 107 0.0 0.0 0.03 0.30 0.03 97 1014.8
20260905131535 23 107 0.0 0.0 0.03 0.30 0.03 97 1014.7
20260905131016 23 107 0.0 0.0 0.03 0.30 0.03 97 1014.7
20260905130516 23 107 0.0 0.0 0.03 0.30 0.03 97 1014.6
20260905130019 23 96 0.0 0.0 0.00 0.28 0.00 97 1014.5
20260905125517 23 96 0.0 0.0 0.00 0.28 0.00 97 1014.5
20260905125014 22 96 0.0 0.0 0.00 0.28 0.00 97 1014.4
20260905124536 22 96 0.0 0.0 0.00 0.28 0.00 97 1014.4
20260905124019 22 96 0.0 0.0 0.00 0.28 0.00 97 1014.4
20260905123513 22 96 0.0 0.0 0.00 0.28 0.00 97 1014.3
20260905123032 22 96 0.0 0.0 0.00 0.28 0.00 97 1014.1
20260905122518 22 96 0.0 0.0 0.00 0.28 0.00 97 1014.1
20260905122010 22 96 0.0 0.0 0.00 0.28 0.00 97 1014.0
20260905121529 22 96 0.0 0.0 0.00 0.28 0.00 97 1013.9
20260905121018 22 96 0.0 0.0 0.00 0.28 0.00 97 1014.0
20260905120518 22 96 0.0 0.0 0.00 0.28 0.00 97 1013.9
20260905120029 22 96 0.0 0.0 0.00 0.28 0.00 97 1013.9
20260905115512 22 96 0.0 0.0 0.00 0.28 0.00 97 1013.8
20260905115018 22 96 0.0 0.0 0.00 0.28 0.00 97 1013.8
20260905114537 22 96 0.0 0.0 0.00 0.28 0.00 97 1013.8
20260905114010 22 96 0.0 0.0 0.00 0.28 0.00 96 1013.8
20260905113521 22 96 0.0 0.0 0.00 0.28 0.00 97 1013.8
20260905113035 22 96 0.0 0.0 0.00 0.28 0.00 97 1013.7
20260905112515 22 96 0.0 0.0 0.00 0.28 0.00 96 1013.7
20260905112014 22 96 0.0 0.0 0.00 0.28 0.00 96 1013.6
20260905111525 22 96 0.0 0.0 0.00 0.28 0.00 96 1013.6
20260905111015 22 96 0.0 0.0 0.00 0.28 0.00 96 1013.5
20260905110513 22 96 0.0 0.0 0.00 0.28 0.00 97 1013.5
20260905110023 22 96 0.0 0.0 0.00 0.28 0.00 97 1013.4
20260905105506 22 96 0.0 0.0 0.00 0.28 0.00 96 1013.3
20260905105004 22 96 0.0 0.0 0.00 0.28 0.00 96 1013.3
20260905104521 22 96 0.0 0.0 0.00 0.28 0.00 96 1013.3
20260905104003 22 96 0.0 0.0 0.00 0.28 0.00 96 1013.2
20260905103513 22 96 0.0 0.0 0.00 0.28 0.00 96 1013.2
20260905103023 22 96 0.0 0.0 0.00 0.28 0.00 96 1013.3
20260905102503 23 96 0.0 0.0 0.00 0.30 0.00 96 1013.3
20260905102016 23 96 0.0 0.0 0.00 0.30 0.00 96 1013.3
20260905101515 23 96 0.0 0.0 0.00 0.30 0.00 96 1013.2
20260905101013 23 96 0.0 0.0 0.00 0.30 0.00 96 1013.2
20260905100513 23 96 0.0 0.0 0.00 0.30 0.00 96 1013.2
20260905100020 23 96 0.0 0.0 0.00 0.30 0.00 96 1013.2
20260905095511 23 96 0.0 0.0 0.00 0.30 0.00 96 1013.2
20260905095007 23 96 0.0 0.0 0.00 0.30 0.00 96 1013.2
20260905094511 23 96 0.0 0.0 0.00 0.30 0.00 96 1013.2
20260905094013 23 96 0.0 0.0 0.00 0.30 0.00 96 1013.2
20260905093509 23 96 0.0 0.0 0.00 0.30 0.00 96 1013.2
20260905093035 23 96 0.0 0.0 0.00 0.30 0.00 96 1013.2
20260905092510 23 96 0.0 0.0 0.00 0.30 0.00 96 1013.2
20260905092006 23 96 0.0 0.0 0.00 0.30 0.00 96 1013.2
20260905091527 23 96 0.0 0.0 0.00 0.30 0.00 96 1013.3
20260905091009 23 96 0.0 0.0 0.00 0.30 0.00 96 1013.2
20260905090502 23 96 0.0 0.0 0.00 0.30 0.00 96 1013.1
20260905090023 23 96 0.0 0.0 0.00 0.30 0.00 96 1013.2
20260905085508 23 96 0.0 0.0 0.00 0.30 0.00 96 1013.2
20260905085019 23 96 0.0 0.0 0.00 0.30 0.00 96 1013.2
20260905084517 23 96 0.0 0.0 0.00 0.30 0.00 96 1013.1
20260905084003 23 96 0.0 0.0 0.00 0.30 0.00 96 1013.1
20260905083512 23 96 0.0 0.0 0.00 0.30 0.00 96 1013.1
20260905083015 23 96 0.0 0.0 0.00 0.30 0.00 96 1013.2
20260905082517 23 96 0.0 0.0 0.00 0.30 0.00 96 1013.1
20260905082012 23 96 0.0 0.0 0.00 0.30 0.00 96 1013.1
20260905081512 23 96 0.0 0.0 0.00 0.30 0.00 96 1013.0
20260905081016 23 96 0.0 0.0 0.00 0.30 0.00 96 1013.1
20260905080511 23 96 0.0 0.0 0.00 0.30 0.00 96 1013.0
20260905080009 23 96 0.0 0.0 0.00 0.30 0.00 96 1013.1
20260905075514 23 96 0.0 0.0 0.00 0.30 0.00 96 1013.1
20260905075007 23 96 0.0 0.0 0.00 0.30 0.00 96 1013.2
20260905074531 23 96 0.0 0.0 0.00 0.30 0.00 96 1013.2
20260905074018 23 96 0.0 0.0 0.00 0.30 0.00 96 1013.3
20260905073507 23 96 0.0 0.0 0.00 0.30 0.00 96 1013.3
20260905073028 23 96 0.0 0.0 0.00 0.30 0.00 96 1013.4
20260905072510 23 96 0.0 0.0 0.00 0.30 0.00 96 1013.4
20260905072006 23 96 0.0 0.0 0.00 0.30 0.00 95 1013.5
20260905071524 23 96 0.0 0.0 0.00 0.30 0.00 95 1013.5
20260905071009 23 96 0.0 0.0 0.00 0.30 0.00 95 1013.6
20260905070516 23 96 0.0 0.0 0.00 0.30 0.00 95 1013.7
20260905070033 23 96 0.0 0.0 0.00 0.30 0.00 95 1013.7
20260905065505 23 96 0.0 0.0 0.00 0.30 0.00 95 1013.7
20260905065016 23 96 0.0 0.0 0.00 0.30 0.00 95 1013.7
20260905064531 23 96 0.0 0.0 0.00 0.30 0.00 95 1013.8
20260905064004 23 96 0.0 0.0 0.00 0.30 0.00 96 1013.8
20260905063515 23 96 0.0 0.0 0.00 0.30 0.00 95 1013.8
20260905063016 23 96 0.0 0.0 0.00 0.30 0.00 96 1013.7
20260905062520 23 96 0.0 0.0 0.00 0.30 0.00 95 1013.7
20260905062012 23 96 0.0 0.0 0.00 0.30 0.00 95 1013.8
20260905061514 23 96 0.0 0.0 0.00 0.30 0.00 95 1013.8
20260905061017 23 96 0.0 0.0 0.00 0.30 0.00 95 1013.8
20260905060511 23 96 0.0 0.0 0.00 0.30 0.00 95 1013.8
20260905060037 23 96 0.0 0.0 0.00 0.30 0.00 95 1013.8
20260905055514 23 96 0.0 0.0 0.00 0.30 0.00 95 1013.7
20260905055008 23 96 0.0 0.0 0.00 0.30 0.00 95 1013.8
20260905054531 23 96 0.0 0.0 0.00 0.30 0.00 95 1013.8
20260905054014 23 96 0.0 0.0 0.00 0.30 0.00 95 1013.7
20260905053510 23 96 0.0 0.0 0.00 0.30 0.00 95 1013.6
20260905053034 23 96 0.0 0.0 0.00 0.30 0.00 95 1013.7
20260905052515 23 96 0.0 0.0 0.00 0.30 0.00 95 1013.8
20260905052017 23 96 0.0 0.0 0.00 0.30 0.00 94 1013.9
20260905051530 23 96 0.0 0.0 0.00 0.30 0.00 94 1013.8
20260905051009 23 96 0.0 0.0 0.00 0.30 0.00 94 1013.8
20260905050518 23 96 0.0 0.0 0.00 0.30 0.00 95 1013.9
20260905050028 24 96 0.0 0.0 0.00 0.30 0.00 95 1013.9
20260905045507 24 96 0.0 0.0 0.00 0.30 0.30 95 1013.9
20260905045016 24 96 0.0 0.0 0.00 0.30 0.30 95 1013.9
20260905044525 23 96 0.0 0.0 0.00 0.30 0.30 95 1013.9
20260905044017 23 96 0.0 0.0 0.00 0.30 0.30 95 1013.9
20260905043514 23 96 0.0 0.0 0.00 0.30 0.30 95 1013.8
20260905043020 23 96 0.0 0.0 0.00 0.30 0.30 94 1013.8
20260905042516 23 96 0.0 0.0 0.00 0.30 0.30 94 1013.8
20260905042013 24 96 0.0 0.0 0.00 0.30 0.30 94 1013.9
20260905041516 24 96 0.0 0.0 0.00 0.30 0.30 94 1013.8
20260905041017 24 96 0.0 0.0 0.00 0.30 0.30 94 1013.9
20260905040511 24 96 0.0 0.0 0.00 0.30 0.30 94 1013.9
20260905040033 24 96 0.0 0.0 0.00 0.30 0.30 94 1013.9
20260905035514 24 96 0.0 0.0 0.00 0.30 0.30 94 1014.0
20260905035012 24 96 0.0 0.0 0.00 0.30 0.30 94 1013.9
20260905034532 24 96 0.0 0.0 0.00 0.30 0.30 94 1014.0
20260905034015 24 96 0.0 0.0 0.00 0.30 0.30 94 1014.0
20260905033516 24 96 0.0 0.0 0.00 0.30 0.30 94 1014.0
20260905033034 24 96 0.0 0.0 0.00 0.30 0.30 94 1014.0
20260905032512 24 96 0.0 0.0 0.00 0.30 0.30 94 1014.0
20260905032017 25 96 0.0 0.0 0.00 0.30 0.30 94 1014.0
20260905031531 25 96 0.0 0.0 0.00 0.30 0.30 94 1014.0
20260905031010 25 96 0.0 0.0 0.00 0.30 0.30 94 1014.0
20260905030517 25 96 0.0 0.0 0.00 0.30 0.30 94 1014.1
20260905030036 25 96 0.0 0.0 0.00 0.30 0.30 93 1014.0
20260905025517 25 96 0.0 0.0 0.00 0.30 0.30 93 1014.0
20260905025020 25 96 0.0 0.0 0.00 0.30 0.30 93 1014.0
20260905024531 25 96 0.0 0.0 0.00 0.30 0.30 93 1014.0
20260905024014 25 96 0.0 0.0 0.00 0.30 0.30 93 1014.0
20260905023514 25 96 0.0 0.0 0.00 0.30 0.30 93 1013.9
20260905023023 25 96 0.0 0.0 0.00 0.30 0.30 93 1013.9
20260905022517 25 96 0.0 0.0 0.00 0.30 0.30 93 1013.9
20260905022014 25 96 0.0 0.0 0.00 0.30 0.30 93 1013.8
20260905021532 25 96 0.0 0.0 0.00 0.30 0.30 93 1013.7
20260905021015 25 96 0.0 0.0 0.00 0.30 0.30 93 1013.7
20260905020515 25 96 0.0 0.0 0.00 0.30 0.30 93 1013.6
20260905020010 25 96 0.0 0.0 0.00 0.30 0.30 93 1013.5
20260905015503 25 96 0.0 0.0 0.00 0.30 0.30 92 1013.3
20260905015007 25 96 0.0 0.0 0.00 0.30 0.30 92 1013.4
20260905014507 25 96 0.0 0.0 0.00 0.30 0.30 92 1013.3
20260905014004 25 96 0.0 0.0 0.00 0.30 0.30 92 1013.4
20260905013502 25 83 0.0 0.0 0.00 0.30 0.30 91 1013.3
20260905013010 26 82 0.0 0.0 0.00 0.30 0.30 91 1013.2
20260905012504 26 82 0.0 0.0 0.00 0.30 0.30 91 1013.1
20260905012004 26 82 0.0 0.0 0.00 0.30 0.30 90 1013.1
20260905011507 26 82 0.0 0.0 0.00 0.30 0.30 90 1013.0
20260905011006 26 82 0.0 0.0 0.00 0.30 0.30 90 1013.0
20260905010506 26 82 0.0 0.0 0.00 0.30 0.30 89 1013.0
20260905010009 26 83 0.0 0.0 0.00 0.30 0.30 89 1012.9
20260905005505 26 82 0.0 0.0 0.00 0.30 0.30 89 1012.9
20260905005003 27 82 0.0 0.0 0.00 0.30 0.30 89 1013.0
20260905004510 27 82 0.0 0.0 0.00 0.30 0.30 89 1012.9
20260905004003 27 82 0.0 0.0 0.00 0.30 0.30 88 1012.8
20260905003506 27 82 0.0 0.0 0.00 0.30 0.30 88 1012.7
20260905003012 27 82 0.0 0.0 0.00 0.30 0.30 88 1012.7
20260905002504 27 83 0.0 0.0 0.00 0.30 0.30 88 1012.7
20260905002008 27 82 0.0 0.0 0.00 0.30 0.30 87 1012.5
20260905001512 27 82 0.0 0.0 0.00 0.30 0.30 88 1012.5
20260905001004 27 82 0.0 0.0 0.00 0.30 0.30 87 1012.6
20260905000509 27 82 0.0 0.0 0.00 0.30 0.30 88 1012.5
20260905000014 27 82 0.0 0.0 0.00 0.30 0.30 88 1012.6
20260904235505 27 82 0.0 0.0 0.00 0.30 0.30 89 1012.7
20260904235003 27 82 0.0 0.0 0.00 0.30 0.30 88 1012.6
20260904234513 27 83 0.0 0.0 0.00 0.30 0.30 88 1012.6
20260904234006 27 83 0.0 0.0 0.00 0.30 0.30 88 1012.6
20260904233503 27 218 0.0 0.0 0.00 0.30 0.30 88 1012.6
20260904233011 28 218 0.0 0.0 0.00 0.30 0.30 86 1012.6
20260904232509 28 218 0.0 0.0 0.00 0.30 0.30 87 1012.6
20260904232007 28 218 0.0 0.0 0.00 0.30 0.30 86 1012.7
20260904231515 28 218 0.0 0.0 0.00 0.30 0.30 85 1012.6
20260904231007 28 218 0.0 0.0 0.00 0.30 0.30 85 1012.5
20260904230507 28 218 0.0 0.0 0.00 0.30 0.30 84 1012.4
20260904230009 29 218 0.0 0.0 0.00 0.30 0.30 82 1012.7
20260904225506 29 218 0.0 0.0 0.00 0.30 0.30 81 1012.5
20260904225006 30 218 0.0 0.0 0.00 0.30 0.30 80 1012.5
20260904224505 30 218 0.0 0.0 0.00 0.30 0.30 79 1012.6
20260904224008 30 218 0.0 0.0 0.00 0.30 0.30 78 1012.7
20260904223503 30 218 0.0 0.0 0.00 0.30 0.30 78 1012.7
20260904223023 30 218 0.0 0.0 0.00 0.30 0.30 77 1012.7
20260904222507 30 218 0.0 0.0 0.00 0.30 0.30 78 1012.9
20260904222004 30 218 0.0 0.0 0.00 0.30 0.30 76 1012.9
20260904221518 31 218 0.0 0.0 0.00 0.30 0.30 75 1012.9
20260904221004 31 218 0.0 0.0 0.00 0.30 0.30 74 1012.9
20260904220504 31 218 0.0 1.6 0.00 0.30 0.30 76 1013.0